Location: Westfield
(45.3617°N, 66.2417°W)
Time: 09:01:33
(UTC-03:00)

Envisat - Visible Passes

Search period start: 23 June 2018 00:00
Search period end: 03 July 2018 00:00
Orbit: 764 x 766 km, 98.2° (Epoch: 23 June)

Date Brightness Start Highest point End Pass type
(mag) Time Alt. Az. Time Alt. Az. Time Alt. Az.
23 Jun 5.8 22:13:29 10° WSW 22:15:33 12° W 22:17:36 10° WNW visible
26 Jun 5.6 22:01:14 10° SW 22:04:14 16° W 22:07:16 10° NW visible
29 Jun 5.5 21:49:19 10° SW 21:52:56 20° W 21:56:36 10° NW visible
01 Jul 5.9 22:17:25 10° WSW 22:18:51 11° W 22:20:18 10° WNW visible
